STARLINK-3207 (49756 NORAD) Tracking and Keplerian Element Data

This shows tracking and keplerian element data for the satellite.

Feedback or suggestion? Click here.




ElementValue
Catalog49756
NameSTARLINK-3207
Epoch Orbit130
Epoch Day140.58334491
Epoch Year2022
RAAN255.071
Inclination53.2143
Eccentricity0.000143
Argument of Perigee56.9619
Mean Anonmoly34.4895
Mean Motion15.08858072
Decay Rate-0.00054197
L11 49756U 21115AJ 22140.58334491 -.00054197 00000+0 -34113-2 0 9998
L22 49756 53.2143 255.0710 0001430 56.9619 34.4895 15.08858072 1306

Live tracking and technical data element details for STARLINK-3207 (NORAD 49756). STARLINK-3207 can be tracked NOW for your location showing map with azimuth and elevation plus other details from your city location.

Track the satellite on the map from your city or location and see movement details for azimuth, elevation, latitude, longitude, range, height, and movement on the map or in text.







IsCatalogInMostPopularTable: catalog: 49756, numindb: 21
Update: records affected: 1



GetName: 49756 STARLINK-3207

Hit Count: updated at: Mon, 23 May 2022 21:01:52 GMT